Theta_e
325 323 321 319 317 315 312 310 308 307 307 307 307 307 307 307 307 307 306 306 306 307 307 306 306 305 305 305 305 304 304 303 302 302 301 298 296 296 296 296 296 297
323 322 320 318 316 314 312 309 307 306 306 306 307 307 307 307 307 306 306 305 306 306 306 306 305 305 305 304 304 304 303 302 302 301 300 297 295 295 296 296 296 297
322 321 319 317 316 314 311 308 306 305 305 305 306 306 306 306 306 306 306 305 305 305 306 305 305 305 304 303 303 303 303 302 301 301 299 297 295 296 296 296 296 296
322 319 318 317 315 313 310 308 306 305 305 305 306 306 306 306 305 305 305 305 305 305 305 305 305 304 303 303 303 303 302 301 301 300 298 297 296 296 296 297 296 296
320 318 317 316 314 311 309 307 306 305 305 305 305 305 305 305 305 305 305 305 305 305 305 305 304 304 303 303 302 302 302 301 301 300 298 297 297 297 297 297 296 296
318 316 315 314 312 309 307 306 306 305 305 305 304 304 305 305 305 304 304 304 304 304 304 304 304 303 303 303 302 302 301 301 300 299 297 297 297 297 297 297 296 296
315 315 314 312 310 307 306 305 305 305 305 305 304 304 304 304 304 304 304 304 304 304 304 304 304 304 303 303 302 302 301 300 299 297 297 297 297 297 297 297 296 295
314 313 312 310 308 306 305 305 305 305 305 305 304 304 303 303 303 304 304 304 304 303 304 304 303 303 303 302 302 301 301 300 298 297 297 297 297 297 296 296 295 295
313 312 310 309 307 306 306 306 305 305 304 304 304 304 303 303 302 303 304 304 304 304 304 304 303 303 303 302 302 301 301 300 298 298 297 297 297 297 296 295 294 294
311 310 309 307 306 306 306 305 305 304 304 304 303 303 302 302 302 302 303 304 304 304 304 304 303 303 302 302 301 301 301 300 299 298 298 298 297 297 296 296 295 295
310 309 308 307 306 306 305 305 304 304 303 303 302 302 300 299 299 300 302 303 304 304 303 303 303 303 302 302 301 301 300 300 299 299 298 298 298 297 297 296 295 295
309 308 307 306 306 305 305 304 304 303 303 303 302 302 300 296 295 297 300 302 304 304 303 303 303 303 302 302 301 301 300 300 300 299 298 298 298 297 297 296 296 296
308 307 306 306 305 305 304 304 303 303 303 303 302 301 298 294 293 295 298 301 303 303 303 303 303 303 302 302 301 300 300 300 300 299 299 299 298 297 297 296 296 296
307 306 305 305 305 304 304 304 303 303 302 302 300 298 295 293 293 294 297 300 302 303 303 303 302 302 302 301 301 300 300 299 299 299 299 299 298 298 297 296 296 295
307 306 305 304 304 304 304 303 303 302 302 300 297 294 293 294 294 295 296 299 302 303 303 302 302 302 302 301 301 300 300 299 299 299 299 299 298 298 297 296 296 295
306 306 305 304 304 304 303 303 302 302 301 298 294 293 293 294 294 295 296 299 301 302 302 302 302 302 302 301 301 300 300 299 298 298 298 299 299 298 297 296 296 295
305 305 304 304 304 304 303 303 302 302 301 297 294 293 294 294 294 295 296 298 300 301 302 302 301 301 301 301 301 300 299 299 299 298 298 298 298 298 296 296 296 295
305 305 304 304 304 304 303 302 302 301 299 295 293 293 294 294 294 295 296 297 299 300 301 301 301 301 300 300 300 300 300 299 299 299 298 297 298 297 296 296 296 296
305 304 304 303 303 303 303 302 302 300 297 293 292 293 293 294 294 295 296 297 298 299 300 300 300 300 300 300 300 300 300 300 299 299 298 297 297 297 297 296 296 296
304 304 303 303 303 303 302 302 301 299 297 294 292 292 293 293 294 295 296 297 298 299 299 299 299 299 299 299 299 299 299 299 299 299 298 298 297 297 297 296 296 295
304 303 303 303 303 303 302 302 301 300 298 295 292 292 293 293 293 294 296 297 298 298 298 298 298 298 298 298 298 298 298 298 299 298 298 297 297 297 297 297 296 295
303 303 303 303 303 303 302 302 301 301 299 296 292 292 293 293 293 294 295 296 297 297 298 298 298 298 297 296 294 294 295 297 298 298 298 297 297 297 297 296 295 294
303 303 303 303 303 303 302 302 301 301 300 296 293 292 292 292 293 293 293 294 295 295 296 295 294 294 293 292 291 292 293 296 297 297 298 297 297 297 296 295 294 295
303 303 303 303 303 303 302 302 301 302 301 298 293 291 292 291 291 291 291 291 292 292 292 291 291 291 291 290 291 292 293 295 296 297 297 297 297 297 295 294 294 295
303 303 303 303 303 303 302 302 302 302 302 300 295 291 291 291 291 292 292 291 291 290 290 290 290 290 290 290 290 290 291 292 294 295 296 296 296 296 295 294 295 295
303 303 303 302 303 303 303 302 302 302 302 301 296 291 291 293 294 295 295 294 293 292 291 290 290 290 290 290 290 290 290 291 292 294 294 295 295 295 294 295 295 295
Wind_Speed
23 22 21 20 19 19 18 17 18 18 18 19 19 20 21 21 20 20 20 21 20 20 20 20 20 20 20 19 19 21 22 23 23 22 21 22 22 22 23 23 24 24
23 22 22 22 21 20 18 17 18 18 19 19 20 21 21 21 20 20 21 21 21 21 20 20 19 19 19 19 19 21 22 22 22 21 21 23 22 23 23 23 23 22
22 22 23 22 22 21 19 19 18 18 19 20 20 21 21 21 21 20 20 20 21 21 20 20 20 19 19 19 19 20 20 21 21 21 22 22 21 22 22 22 22 21
22 23 23 22 21 21 20 20 20 19 20 21 21 21 21 21 21 20 20 20 20 21 20 20 20 19 19 19 19 20 20 20 20 20 21 22 20 21 21 21 21 21
23 23 24 23 21 21 21 21 21 21 21 21 21 21 21 20 20 20 20 20 20 21 20 20 19 19 19 18 18 19 19 19 18 18 20 21 20 20 20 19 20 20
24 24 24 22 21 21 21 22 23 22 21 21 21 20 20 19 19 19 20 20 20 20 20 20 19 19 18 18 18 18 18 18 17 17 19 20 20 19 18 18 19 20
25 25 23 22 22 22 23 24 23 22 22 21 21 19 18 19 19 19 19 19 20 20 20 20 19 19 18 18 18 18 17 17 17 18 19 19 19 18 17 17 17 19
25 24 23 23 23 24 24 24 23 22 22 21 20 19 17 17 18 18 18 18 19 20 20 20 19 19 19 18 18 18 17 16 16 17 19 18 18 17 17 16 17 18
24 24 24 24 24 25 24 23 23 23 22 20 20 18 16 15 16 17 18 18 19 20 20 20 19 19 19 18 17 17 16 15 14 16 17 17 16 16 16 17 17 18
24 24 25 25 25 25 24 24 23 23 21 19 18 17 15 15 15 16 17 18 19 20 19 19 19 18 18 17 17 16 15 15 14 14 14 14 14 14 15 16 17 18
25 25 25 26 25 25 24 24 24 22 20 18 17 15 14 14 15 16 17 19 19 19 19 19 18 17 17 17 16 15 14 14 13 13 12 11 11 12 13 15 16 17
26 25 26 26 25 25 24 24 23 21 19 17 15 13 12 13 15 17 18 19 20 19 19 18 17 17 17 17 15 14 13 12 11 11 10 9 9 10 12 14 15 16
26 26 26 26 25 25 25 24 22 20 18 15 12 11 12 14 16 18 19 20 20 19 19 18 17 16 16 16 14 13 12 11 10 9 9 7 6 8 10 12 13 14
27 26 26 26 25 25 25 23 21 19 16 14 12 11 14 16 17 19 20 20 20 20 19 18 17 16 15 15 14 12 11 10 9 8 8 7 5 6 9 10 11 13
27 27 27 26 25 25 25 23 21 18 15 13 12 14 16 18 18 18 19 20 20 20 18 17 16 16 15 14 13 11 10 10 9 9 8 7 5 5 7 9 10 12
27 28 27 26 26 26 25 24 21 18 16 14 14 16 17 18 18 18 19 19 20 19 18 17 16 15 14 13 12 11 9 9 9 9 8 6 4 4 6 7 9 11
28 28 28 27 27 27 26 24 21 18 16 15 15 17 17 17 17 17 18 18 18 18 17 16 15 14 13 12 11 10 9 8 7 6 6 5 5 5 5 5 7 9
29 29 29 28 28 28 26 24 21 19 17 16 16 17 17 17 17 17 17 17 17 17 17 15 14 13 12 11 10 9 8 6 5 5 4 4 5 5 4 4 5 8
30 30 30 30 29 28 27 25 22 19 17 16 16 16 16 17 17 17 17 17 17 17 16 15 14 12 10 10 8 7 6 5 4 4 4 4 6 6 3 3 3 8
31 31 30 30 29 29 27 25 23 20 17 16 16 16 17 17 17 17 17 17 17 17 16 14 12 11 9 8 7 5 5 4 4 4 4 4 6 6 3 3 3 8
32 31 30 30 30 29 28 26 24 21 18 16 15 16 17 17 17 18 17 17 16 16 15 14 11 9 7 6 5 5 5 5 5 4 4 4 5 6 4 1 4 7
33 32 31 31 31 30 29 28 25 22 19 17 16 17 18 18 18 18 17 16 16 15 14 13 10 7 6 5 4 4 6 7 7 6 5 5 5 5 3 2 4 6
34 34 32 32 31 31 30 29 26 24 21 19 18 19 19 19 19 18 16 15 15 13 12 12 10 7 5 4 3 3 4 7 8 7 7 6 5 4 1 2 3 6
34 34 33 33 32 31 31 29 27 25 22 20 19 19 21 20 19 19 17 15 14 13 12 12 11 8 6 5 4 3 4 6 8 8 8 7 5 3 1 1 2 5
34 34 34 33 32 31 30 29 27 25 23 21 19 20 22 22 21 20 18 16 15 13 12 11 10 9 7 6 5 4 3 4 6 7 8 7 5 4 3 2 2 4
34 34 34 33 32 31 29 28 27 26 24 22 21 21 23 23 21 19 17 15 14 12 11 10 9 8 7 6 5 4 3 3 4 6 8 8 7 6 4 2 2 4
Wind_Direction
173 171 168 164 161 159 156 155 153 151 146 142 136 129 126 124 124 121 117 116 116 115 114 113 110 106 104 103 102 101 100 96 91 85 80 78 83 89 88 82 77 73
172 171 169 164 160 157 156 156 154 150 145 140 135 130 127 127 126 124 121 120 118 115 115 114 110 106 105 105 105 104 102 98 91 85 80 80 86 88 84 79 74 69
173 173 170 166 161 157 156 156 153 147 141 138 136 133 131 130 129 127 124 122 120 117 116 114 110 107 105 107 107 105 103 98 92 87 82 82 85 85 81 76 71 65
173 173 170 166 162 158 157 155 151 146 141 138 138 136 134 133 131 128 126 124 122 120 118 115 113 109 108 110 109 105 102 98 94 88 84 83 84 82 77 71 67 61
171 170 167 164 160 158 159 156 151 148 144 141 140 139 137 134 132 129 129 128 126 123 121 119 117 115 114 114 110 107 105 101 95 88 85 85 82 78 72 66 63 57
166 165 164 162 160 160 159 156 153 151 148 144 142 141 139 136 134 132 132 131 129 127 125 123 122 121 120 119 114 109 107 102 96 90 87 85 81 75 67 62 60 54
162 162 162 161 160 159 157 155 154 153 151 148 144 141 141 140 138 136 135 134 133 131 128 127 126 124 125 124 118 112 108 104 96 91 90 86 79 73 66 61 57 51
161 162 162 161 159 159 157 155 155 154 152 151 145 142 143 142 141 141 140 138 136 134 132 131 129 127 129 127 120 115 111 107 98 92 91 87 80 73 66 60 54 48
162 162 162 162 160 159 158 156 156 155 155 153 147 145 146 145 146 147 147 145 140 138 137 136 133 131 131 128 123 118 113 108 101 95 92 88 82 76 67 59 54 48
163 163 163 162 161 159 158 158 157 156 157 155 150 149 150 149 150 152 153 152 147 143 142 141 139 137 135 131 126 120 113 107 102 99 96 90 83 76 67 58 52 48
163 163 164 162 160 159 158 158 158 157 158 157 153 151 149 150 153 157 159 158 152 149 147 145 143 142 140 135 129 123 116 108 103 105 103 94 83 75 67 58 52 46
163 164 164 162 161 159 159 159 158 159 159 157 157 154 148 149 154 158 162 161 157 153 151 148 145 144 142 137 130 125 122 115 111 115 113 99 84 74 65 56 51 45
165 165 164 163 162 160 159 160 159 161 161 158 160 160 153 151 152 155 159 160 158 155 152 149 146 143 141 138 131 127 127 125 120 124 128 114 91 75 64 55 49 42
166 165 164 163 163 161 161 160 161 162 160 157 160 161 156 153 151 152 155 157 157 155 152 150 148 144 141 140 136 131 131 128 117 121 137 136 115 83 63 57 48 40
167 166 165 164 163 163 162 161 161 161 157 153 156 157 156 153 151 150 152 153 155 154 152 152 150 145 143 144 142 137 135 128 113 114 131 141 133 100 68 59 50 40
168 168 167 166 165 164 163 162 162 160 156 153 154 156 155 153 150 150 151 152 153 152 152 153 151 149 148 149 148 144 141 133 120 115 124 142 148 112 79 61 50 41
170 170 169 168 167 166 165 164 162 160 156 154 153 154 154 153 152 151 150 151 152 152 152 151 150 150 153 156 154 151 149 142 133 124 119 136 155 127 89 65 50 35
171 170 169 169 168 167 166 164 162 160 156 153 152 153 153 152 152 150 149 150 151 151 150 149 148 148 151 156 156 157 159 154 147 143 129 131 150 145 104 70 46 19
172 171 169 169 170 169 166 164 162 159 153 150 149 152 153 152 150 149 148 150 151 150 148 146 145 146 149 153 154 158 166 168 157 149 139 135 150 154 123 80 37 4
173 172 170 170 171 169 167 164 163 158 151 148 148 152 154 152 149 148 147 150 153 150 148 146 145 147 154 158 162 167 176 177 169 157 147 149 162 166 141 88 19 357
173 171 170 170 171 171 169 166 164 159 152 148 149 152 152 149 148 149 148 150 153 152 150 148 146 151 162 173 185 198 204 197 187 176 164 158 167 172 157 77 0 356
174 171 170 170 171 172 171 168 165 162 157 151 149 148 146 144 144 146 148 151 154 158 157 153 151 158 172 186 198 206 207 202 196 186 175 162 157 162 152 19 354 355
176 173 171 171 172 173 172 170 168 166 162 157 153 149 145 142 140 141 144 148 152 158 159 152 148 153 157 163 160 153 179 194 196 193 184 174 165 160 124 19 8 1
178 177 175 173 174 176 175 173 171 170 168 165 161 153 147 142 139 137 138 140 143 146 146 141 138 137 134 131 128 130 160 183 193 198 194 187 183 174 141 93 35 8
180 180 180 177 177 179 179 177 175 174 173 170 165 157 149 143 139 136 134 133 134 132 130 129 127 126 125 121 119 123 143 168 187 198 195 188 183 168 149 129 50 14
182 182 182 181 180 181 181 181 179 177 176 174 168 158 151 145 141 139 136 134 131 126 122 121 120 121 121 118 113 109 109 144 176 182 170 160 154 148 143 116 45 25